Darstellungsparameter: Aktuell verwendete Einstellungen:
Skalierung der Graphiken ... ?
xyx+y,   Skalierungsfaktor:      Skalierung: Modus: x, Faktor: 1
Darstellungszeitraum ... ?
Vom - - bis: - -   Zeitraum: 04.11.2008 - 05.11.2008
Min/Max/Avg-Anzeige ... ?
Zeige MMA aktuell
Zeige MMA Monat
Zeige MMA alles
Zeige --A aktuell
Zeige --A Monat
Zeige --A alles
Keine MMA-Anzeige
MMA:
Average (ber die Originaldaten)
MMA-Basis: 17.04.2019 - 19.05.2019
Quicknavigation für Darstellung... ?
Tage:      1T, 2T, 3T, 5T -1T -2T -3T -5T +1T +2T +3T +5T
Wochen: 1W, 2W, 3W -1W -2W -3W +1W +2W +3W
Monate: 1M, 3M, 6M -1M -3M -6M +1M +3M +6M
Jahre:    1J, 3J, 5J, 10J -1J -3J -5J -10J +1J +3J +5J +10J
Nutze für die Darstellung ... ?
Originaldaten oder Mittelwerte auf ...
Stundenbasis Tagesbasis Wochenbasis
Monatsbasis Jahresbasis      Datenbasis: Original-Daten
Darstellen als:
Statistik (Auto) Statistik J:M      Darstellung:
Zur Graphik,    zurück zur Übersicht aller Sensoren.
 
Tabellarische Datenbersicht: ?
 
Sensor: Nr:Datum:Temp:Abs-Feuchte:Windchill:Wind:
Aussen-T/F 1 04-11-2008 00:16:28 6.9 C 7.31 g/m*3 6.9 C 0 km/h
2 04-11-2008 00:41:28 6.7 C 7.22 g/m*3 6.7 C 0 km/h
3 04-11-2008 01:06:28 6.8 C 7.27 g/m*3 6.8 C 0 km/h
4 04-11-2008 01:31:28 6.8 C 7.27 g/m*3 6.8 C 0 km/h
5 04-11-2008 01:56:28 6.6 C 7.17 g/m*3 6.6 C 0 km/h
6 04-11-2008 02:21:28 6.5 C 7.12 g/m*3 6.5 C 0 km/h
7 04-11-2008 02:46:28 6.7 C 7.22 g/m*3 6.7 C 0 km/h
8 04-11-2008 03:11:28 6.8 C 7.27 g/m*3 6.8 C 0 km/h
9 04-11-2008 03:36:28 6.8 C 7.27 g/m*3 6.8 C 0 km/h
10 04-11-2008 04:01:28 6.8 C 7.27 g/m*3 6.8 C 0 km/h
11 04-11-2008 04:26:28 6.7 C 7.22 g/m*3 6.7 C 0 km/h
12 04-11-2008 04:51:28 6.8 C 7.27 g/m*3 6.8 C 0 km/h
13 04-11-2008 05:16:28 6.4 C 7.08 g/m*3 6.4 C 0 km/h
14 04-11-2008 05:41:28 6.3 C 7.03 g/m*3 6.3 C 0 km/h
15 04-11-2008 06:06:28 6.2 C 6.99 g/m*3 6.2 C 0 km/h
16 04-11-2008 06:31:28 6.3 C 7.03 g/m*3 6.3 C 0 km/h
17 04-11-2008 06:56:28 6.4 C 7.08 g/m*3 6.4 C 0 km/h
18 04-11-2008 07:21:29 6.4 C 7.08 g/m*3 6.4 C 0 km/h
19 04-11-2008 07:46:29 6.5 C 7.12 g/m*3 6.5 C 0 km/h
20 04-11-2008 08:11:29 6.6 C 7.17 g/m*3 6.6 C 0 km/h
21 04-11-2008 08:36:29 6.6 C 7.17 g/m*3 6.6 C 0 km/h
22 04-11-2008 09:01:29 6.9 C 7.31 g/m*3 6.9 C 0 km/h
23 04-11-2008 09:26:29 7.4 C 7.55 g/m*3 7.4 C 0 km/h
24 04-11-2008 09:51:29 7.7 C 7.7 g/m*3 7.7 C 0 km/h
25 04-11-2008 10:16:29 8.1 C 7.9 g/m*3 8.1 C 0 km/h
Sensor: Nr:Datum:Temp:Abs-Feuchte:Windchill:Wind:
Aussen-T/F 26 04-11-2008 10:41:29 7.8 C 7.75 g/m*3 7.8 C 0 km/h
27 04-11-2008 11:06:29 8.5 C 8.03 g/m*3 8.5 C 0 km/h
28 04-11-2008 11:31:29 9 C 8.11 g/m*3 9 C 0 km/h
29 04-11-2008 11:56:29 9 C 7.93 g/m*3 9 C 0 km/h
30 04-11-2008 12:21:29 9.1 C 7.81 g/m*3 9.1 C 0 km/h
31 04-11-2008 12:46:29 9.7 C 8.11 g/m*3 9.7 C 0 km/h
32 04-11-2008 13:11:29 12 C 8.85 g/m*3 12 C 0 km/h
33 04-11-2008 13:36:29 13.7 C 8.05 g/m*3 13.7 C 0 km/h
34 04-11-2008 14:01:29 14.5 C 8.46 g/m*3 14.5 C 0 km/h
35 04-11-2008 14:26:29 14.4 C 8.41 g/m*3 14.4 C 0 km/h
36 04-11-2008 14:51:29 14.4 C 8.41 g/m*3 14.4 C 0 km/h
37 04-11-2008 15:16:30 13.9 C 8.51 g/m*3 13.9 C 0 km/h
38 04-11-2008 15:41:30 13.4 C 8.49 g/m*3 13.4 C 0 km/h
39 04-11-2008 16:06:30 12.8 C 8.4 g/m*3 12.8 C 0 km/h
40 04-11-2008 16:31:30 12.1 C 8.36 g/m*3 12.1 C 0 km/h
41 04-11-2008 16:56:30 11.8 C 8.21 g/m*3 11.8 C 0 km/h
42 04-11-2008 17:21:30 11.9 C 8.26 g/m*3 11.9 C 0 km/h
43 04-11-2008 17:46:30 11.1 C 8.16 g/m*3 11.1 C 0 km/h
44 04-11-2008 18:11:30 10.9 C 8.26 g/m*3 10.9 C 0 km/h
45 04-11-2008 18:36:30 10.8 C 8.4 g/m*3 10.8 C 0 km/h
46 04-11-2008 19:01:30 10.6 C 8.39 g/m*3 10.6 C 0 km/h
47 04-11-2008 19:26:30 10.4 C 8.29 g/m*3 10.4 C 0 km/h
48 04-11-2008 19:51:30 10.2 C 8.28 g/m*3 10.2 C 0 km/h
49 04-11-2008 20:16:30 10.1 C 8.32 g/m*3 10.1 C 0 km/h
50 04-11-2008 20:41:30 9.7 C 8.2 g/m*3 9.7 C 0 km/h
Sensor: Nr:Datum:Temp:Abs-Feuchte:Windchill:Wind:
Aussen-T/F 51 04-11-2008 21:06:30 9.3 C 8.09 g/m*3 9.3 C 0 km/h
52 04-11-2008 21:31:30 9.1 C 7.99 g/m*3 9.1 C 0 km/h
53 04-11-2008 21:56:30 9.1 C 8.07 g/m*3 9.1 C 0 km/h
54 04-11-2008 22:21:30 9.1 C 8.16 g/m*3 9.1 C 0 km/h
55 04-11-2008 22:46:30 8.7 C 8.04 g/m*3 8.7 C 0 km/h
56 04-11-2008 23:11:31 8.4 C 7.89 g/m*3 8.4 C 0 km/h
57 04-11-2008 23:36:31 9 C 8.2 g/m*3 9 C 0 km/h
58 05-11-2008 00:01:31 8.7 C 8.04 g/m*3 8.7 C 0 km/h
59 05-11-2008 00:26:31 8.7 C 8.04 g/m*3 8.7 C 0 km/h
60 05-11-2008 00:51:31 8.6 C 7.99 g/m*3 8.6 C 0 km/h
61 05-11-2008 01:16:31 8.7 C 8.04 g/m*3 8.7 C 0 km/h
62 05-11-2008 01:41:31 8.8 C 7.92 g/m*3 8.8 C 0 km/h
63 05-11-2008 02:06:31 8.7 C 7.7 g/m*3 8.7 C 0 km/h
64 05-11-2008 02:31:31 8.5 C 7.6 g/m*3 8.5 C 0 km/h
65 05-11-2008 02:56:31 8.4 C 7.55 g/m*3 8.4 C 0 km/h
66 05-11-2008 03:21:31 8.3 C 7.5 g/m*3 8.3 C 0 km/h
67 05-11-2008 03:46:31 8.4 C 7.55 g/m*3 8.4 C 0 km/h
68 05-11-2008 04:11:31 8.2 C 7.37 g/m*3 8.2 C 0 km/h
69 05-11-2008 04:36:31 7.9 C 7.39 g/m*3 7.9 C 0 km/h
70 05-11-2008 05:01:31 8.2 C 7.45 g/m*3 8.2 C 0 km/h
71 05-11-2008 05:26:31 8.4 C 7.55 g/m*3 8.4 C 0 km/h
72 05-11-2008 05:51:31 8.4 C 7.55 g/m*3 8.4 C 0 km/h
73 05-11-2008 06:16:31 8.4 C 7.38 g/m*3 8.4 C 0 km/h
74 05-11-2008 06:41:31 8.5 C 7.34 g/m*3 8.5 C 0 km/h
75 05-11-2008 07:06:31 8.4 C 7.21 g/m*3 8.4 C 0 km/h
Sensor: Nr:Datum:Temp:Abs-Feuchte:Windchill:Wind:
Aussen-T/F 76 05-11-2008 07:31:32 8.4 C 7.21 g/m*3 8.4 C 0 km/h
77 05-11-2008 07:56:32 8.5 C 7.26 g/m*3 8.5 C 0 km/h
78 05-11-2008 08:21:32 8.7 C 7.35 g/m*3 8.7 C 0 km/h
79 05-11-2008 08:46:32 8.9 C 7.45 g/m*3 8.9 C 0 km/h
80 05-11-2008 09:11:32 9.2 C 7.5 g/m*3 9.2 C 0 km/h
81 05-11-2008 09:36:32 9.8 C 7.79 g/m*3 9.8 C 0 km/h
82 05-11-2008 10:01:32 10 C 7.42 g/m*3 10 C 0 km/h
83 05-11-2008 10:26:32 10.7 C 7.46 g/m*3 10.7 C 0 km/h
84 05-11-2008 10:51:32 10.7 C 7.46 g/m*3 10.7 C 0 km/h
85 05-11-2008 11:16:32 10.9 C 7.46 g/m*3 10.9 C 0 km/h
86 05-11-2008 11:41:32 11 C 7.51 g/m*3 11 C 0 km/h
87 05-11-2008 12:06:32 11.1 C 7.45 g/m*3 11.1 C 0 km/h
88 05-11-2008 12:31:32 11 C 7.41 g/m*3 11 C 0 km/h
89 05-11-2008 12:56:32 10.8 C 7.51 g/m*3 10.8 C 0 km/h
90 05-11-2008 13:21:32 11 C 7.61 g/m*3 11 C 0 km/h
91 05-11-2008 13:46:32 11.2 C 7.6 g/m*3 11.2 C 0 km/h
92 05-11-2008 14:11:32 11.2 C 7.7 g/m*3 11.2 C 0 km/h
93 05-11-2008 14:36:32 11.4 C 7.8 g/m*3 11.4 C 0 km/h
94 05-11-2008 15:01:32 11.5 C 7.64 g/m*3 11.5 C 0 km/h
95 05-11-2008 15:26:33 11.5 C 7.64 g/m*3 11.5 C 0 km/h
96 05-11-2008 15:51:33 11.4 C 7.7 g/m*3 11.4 C 0 km/h
97 05-11-2008 16:16:33 11.1 C 7.66 g/m*3 11.1 C 0 km/h
98 05-11-2008 16:41:33 10.9 C 7.76 g/m*3 10.9 C 0 km/h
99 05-11-2008 17:06:33 10.7 C 7.66 g/m*3 10.7 C 0 km/h
100 05-11-2008 17:31:33 10.5 C 7.66 g/m*3 10.5 C 0 km/h
Sensor: Nr:Datum:Temp:Abs-Feuchte:Windchill:Wind:
Aussen-T/F 101 05-11-2008 17:56:33 10.5 C 7.76 g/m*3 10.5 C 0 km/h
102 05-11-2008 18:21:33 10.4 C 7.81 g/m*3 10.4 C 0 km/h
103 05-11-2008 18:46:33 10.4 C 7.81 g/m*3 10.4 C 0 km/h
104 05-11-2008 19:11:33 10.4 C 7.9 g/m*3 10.4 C 0 km/h
105 05-11-2008 19:36:33 10.3 C 7.85 g/m*3 10.3 C 0 km/h
106 05-11-2008 20:01:33 10.3 C 7.85 g/m*3 10.3 C 0 km/h
107 05-11-2008 20:26:33 10.3 C 7.95 g/m*3 10.3 C 0 km/h
108 05-11-2008 20:51:33 10.2 C 7.9 g/m*3 10.2 C 0 km/h
109 05-11-2008 21:16:33 10.2 C 7.9 g/m*3 10.2 C 0 km/h
110 05-11-2008 21:41:33 10.2 C 7.9 g/m*3 10.2 C 0 km/h
111 05-11-2008 22:06:33 10.2 C 7.9 g/m*3 10.2 C 0 km/h
112 05-11-2008 22:31:33 10.2 C 7.99 g/m*3 10.2 C 0 km/h
113 05-11-2008 22:56:33 10.2 C 7.99 g/m*3 10.2 C 0 km/h
114 05-11-2008 23:21:34 10.2 C 7.99 g/m*3 10.2 C 0 km/h
115 05-11-2008 23:46:34 10 C 7.99 g/m*3 10 C 0 km/h

Legende:
   Min
   Max


Maximal/Minimal-Werte vom 17.04.2019 - 19.05.2019

Sensor Min Max Avg
Temp
(Aussen-T/F)
2.2 °C
13-05-2019  06:50:00
26.6 °C
24-04-2019  17:05:00
11.51 °C

Die Daten stammen von einer Davis Vantage Pro 2 Wetter-Station und werden unter Linux mit der Software wview2wettercgi und aufbereitet. Alle Angaben erfolgen ohne Gewähr für ihre Vollständigkeit oder Richtigkeit.
Kontakt: Rainer Krienke krienke@uni-koblenz.de . Meine Webseiten an der Uni Koblenz oder privat.
Version: $Revision: 0.78 $